Location: Zabreh
(49.8800°N, 16.8800°E)
Time: 13:04:39
(UTC+01:00)

ISS - Visible Passes

Search period start: 24 February 2018 00:00
Search period end: 06 March 2018 00:00
Orbit: 402 x 407 km, 51.6° (Epoch: 24 February)

Date Brightness Start Highest point End Pass type
(mag) Time Alt. Az. Time Alt. Az. Time Alt. Az.
27 Feb -0.9 05:34:13 10° S 05:36:02 14° SE 05:37:51 10° ESE visible
01 Mar -1.9 05:24:55 10° SSW 05:27:43 26° SE 05:30:31 10° E visible
02 Mar -1.4 04:34:22 14° SSE 04:35:39 17° SE 04:37:50 10° E visible
03 Mar -3.0 05:17:04 16° SW 05:19:27 46° SSE 05:22:38 10° ENE visible
04 Mar -2.4 04:26:59 30° SSE 04:27:16 30° SSE 04:30:12 10° E visible
05 Mar -0.8 03:36:49 14° ESE 03:36:49 14° ESE 03:37:36 10° E visible
05 Mar -3.8 05:09:28 25° WSW 05:11:15 78° SSE 05:14:32 10° ENE visible
